Location: Newark
(27.9675°N, 86.8869°E)
Time: 17:13:19
(UTC+00:00)

SR - Pass Details

Date: 26 October 2019
Orbit: 573 x 882 km, 66.7° (Epoch: 21 November)

Event Time Altitude Azimuth Distance (km) Brightness Sun altitude
Rises 00:37:07 0° 333° (NNW) 3,480 ? 3.0°
Reaches altitude 10° 00:39:39 10° 331° (NNW) 2,540 ? 3.5°
Maximum altitude 00:45:33 71° 249° (WSW) 914 ? 4.8°
Drops below altitude 10° 00:51:13 10° 165° (SSE) 2,439 ? 6.0°
Sets 00:53:36 0° 163° (SSE) 3,333 ? 6.5°
